Simultaneous Nadir Overpasses (SNOs) Predictions

Prediction of SNOs between NOAA-15 and METOP-C Satellite Orbit:

Table of predicted SNOs for the next 14.0 days since TLE Epoch: 4/29/2021
Index Date (NOAA-15) Time (NOAA-15) Lat,Lon (NOAA-15) SZA (NOAA-15 ) Date (METOP-C) Time (METOP-C) Lat,Lon (METOP-C) SZA (METOP-C ) Distance(km) Time Diff (sec)
1 05/13/2021 00:29:42 81.01,-150.39 64.58 05/13/2021 00:28:38 81.01,-150.36 64.56 0.58 64
2 05/13/2021 01:20:17 -81.01, 16.88 115.44 05/13/2021 01:19:19 -81.00, 16.89 115.47 1.03 58
3 05/13/2021 02:10:44 81.00,-175.56 64.57 05/13/2021 02:09:59 81.01,-175.49 64.57 1.67 45



Historial Predications of SNOs between NOAA-15 and METOP-C
